Theta_e
304 305 306 307 307 307 308 308 309 309 310 310 312 308 313 315 315 315 315 312 307 307 307 307 307 319 312 315 314 310 315 317 319 319 321 320 324 319 321 325 326 327 326 328 333
303 303 304 304 305 306 307 308 308 308 309 309 310 308 310 314 316 314 310 307 304 305 307 306 306 311 315 313 314 316 314 315 314 315 318 321 322 322 325 328 330 331 330 331 332
303 302 302 301 303 304 306 307 307 308 308 308 309 309 309 309 311 309 307 305 303 305 309 306 308 311 312 314 313 314 315 313 313 313 316 319 322 321 326 328 326 331 331 329 331
303 303 303 303 302 302 304 306 307 307 307 306 307 309 308 309 311 307 308 305 305 307 308 310 313 313 311 314 313 315 313 310 311 315 317 319 321 325 325 326 322 326 330 330 330
304 304 304 304 303 303 302 305 307 307 306 305 307 309 308 312 309 307 309 309 311 311 306 308 313 313 312 311 314 314 314 313 314 315 315 316 318 321 321 321 324 329 330 331 332
305 304 305 304 304 304 303 302 306 307 307 307 308 309 309 310 309 309 310 314 314 311 306 307 310 313 313 312 313 312 313 314 313 314 315 316 314 318 319 322 329 331 332 331 331
304 304 304 304 304 304 304 303 302 306 307 307 308 307 310 308 310 310 313 312 311 309 307 307 309 312 311 313 311 311 314 314 314 315 315 314 315 314 315 326 329 332 332 331 330
304 304 304 304 304 304 304 304 303 302 306 307 306 307 306 307 309 310 310 311 311 308 306 307 310 313 311 312 314 314 314 316 314 315 316 313 314 310 311 325 328 330 331 331 330
303 303 304 304 304 304 304 303 296 304 306 307 306 307 308 308 312 311 310 311 310 312 311 310 314 313 314 314 316 314 313 314 315 314 315 315 315 313 309 319 322 328 329 330 330
303 302 303 304 304 304 303 298 302 304 303 305 307 307 307 310 311 311 310 310 310 311 314 315 314 314 312 312 315 315 312 313 313 312 315 315 316 314 311 309 315 318 323 326 328
303 303 303 303 304 303 301 301 300 301 302 303 305 307 308 308 309 311 310 311 311 309 313 315 313 312 313 310 310 312 312 313 312 310 316 316 315 315 313 312 311 309 308 309 319
303 303 303 303 303 300 300 300 302 303 303 302 302 303 307 307 307 313 311 314 312 309 313 316 310 310 310 313 311 311 312 312 309 310 313 311 312 310 310 312 313 313 310 308 307
302 302 303 302 302 297 299 299 301 303 303 302 303 308 309 307 308 309 311 313 313 311 312 312 308 310 312 315 315 312 310 310 311 312 310 311 308 309 308 307 309 310 312 310 310
302 302 301 300 299 297 297 298 302 302 301 299 305 307 307 307 309 308 311 311 313 311 308 307 307 310 312 314 312 313 309 310 310 311 314 307 308 306 304 304 305 306 307 309 310
301 301 301 301 300 296 297 299 301 299 293 299 307 307 307 307 307 307 310 309 314 312 308 309 309 309 309 309 311 312 311 312 310 309 309 308 310 307 304 306 305 305 304 305 306
300 300 301 301 299 298 299 299 299 290 291 301 307 306 308 308 308 309 306 307 310 313 313 311 306 308 308 308 310 309 310 310 309 311 309 306 307 307 307 306 306 305 304 302 301
300 301 301 301 299 299 299 294 288 289 293 300 304 303 305 310 309 309 309 307 311 315 316 311 311 307 306 310 309 309 311 315 312 307 308 303 308 307 306 306 304 304 302 301 301
302 301 301 299 299 299 296 288 284 279 289 301 302 302 307 307 310 311 311 311 305 309 316 317 316 310 305 309 311 309 308 312 308 311 310 304 310 307 304 303 301 301 301 300 300
301 300 299 299 299 301 289 284 284 283 299 302 299 297 302 306 308 309 311 312 310 308 314 315 315 308 305 307 309 311 311 306 305 293 303 305 304 301 301 301 302 301 301 302 301
299 297 298 299 299 295 287 291 284 291 299 302 294 300 296 298 303 304 310 309 312 312 309 312 314 307 307 309 310 310 307 310 308 302 302 300 301 303 302 303 300 302 302 302 301
297 290 298 298 296 288 284 280 288 294 299 299 299 300 300 301 299 300 308 307 308 311 311 312 311 306 307 307 310 310 310 310 308 304 304 301 300 296 300 300 299 298 298 301 301
293 288 297 298 288 288 285 281 295 296 297 296 298 302 305 306 304 304 306 307 303 309 312 311 312 310 307 307 306 308 311 310 313 310 302 301 301 298 297 297 297 297 297 300 301
292 290 296 297 285 280 280 282 291 294 296 298 299 301 302 304 303 306 305 304 303 307 309 311 312 304 305 307 307 308 308 309 311 306 307 307 306 298 297 297 296 299 299 299 303
287 288 290 295 290 284 281 281 288 292 297 298 299 300 301 301 303 303 304 306 304 302 303 307 311 304 306 308 308 309 308 309 310 312 311 308 306 302 299 299 297 298 298 300 302
284 284 283 284 293 294 291 285 286 289 292 296 296 298 299 297 299 301 299 301 303 305 303 304 309 310 309 309 309 310 309 309 311 311 312 310 304 303 301 301 301 300 298 300 302
292 288 292 291 289 293 294 286 292 292 294 291 295 297 298 297 299 299 300 301 301 302 305 305 308 301 304 309 310 311 309 309 310 311 311 309 309 303 301 297 297 301 303 303 300
294 293 293 290 294 294 292 289 291 294 294 295 296 297 298 296 298 299 299 299 300 300 299 303 299 301 304 304 306 310 311 309 310 310 310 312 310 304 304 303 302 299 301 302 302
Wind_Speed
15 16 17 18 18 19 20 21 21 21 22 22 23 25 25 26 21 20 20 16 19 31 18 12 4 11 4 4 3 3 3 4 5 5 5 3 4 1 2 6 1 4 3 1 27
15 16 16 17 19 21 21 21 21 22 24 24 25 28 29 26 22 24 30 26 23 17 13 13 6 13 4 3 2 4 4 9 6 4 3 1 5 7 5 4 2 2 5 16 24
15 16 17 19 19 20 22 22 21 21 22 23 25 22 26 40 2 10 33 35 28 24 17 9 8 7 6 6 7 5 5 5 4 5 2 2 2 5 6 3 7 10 10 16 21
15 17 18 20 21 22 22 24 22 22 21 24 23 20 23 25 8 2 6 20 28 22 17 8 5 7 7 9 4 6 7 5 4 5 4 2 1 3 5 4 1 7 15 17 19
16 18 19 20 21 23 24 23 23 22 22 24 22 19 15 9 8 13 6 4 29 24 20 8 6 7 7 7 7 5 7 7 5 4 4 2 3 4 5 7 4 10 15 16 16
17 18 20 21 22 23 24 25 23 23 22 21 20 14 6 17 7 15 9 9 21 27 16 10 7 5 5 6 12 9 6 5 6 5 4 4 2 2 2 1 5 10 14 14 16
17 18 19 21 22 24 25 26 26 24 23 21 20 16 6 11 8 4 8 13 17 22 9 15 6 5 6 2 4 7 6 3 5 7 5 6 5 6 3 2 4 7 7 8 11
17 19 20 20 21 24 27 29 30 26 23 18 14 9 6 9 12 17 8 8 12 12 10 20 9 3 4 1 3 5 5 6 3 8 3 8 5 7 6 6 8 6 5 6 9
18 18 19 20 21 23 28 33 31 20 16 18 6 5 4 11 6 18 9 6 9 6 6 17 11 4 4 6 3 5 7 6 3 4 5 4 4 3 1 7 8 7 7 6 5
17 19 19 20 20 21 27 30 16 6 12 3 2 1 2 5 9 10 7 6 4 5 4 3 4 4 2 4 12 5 5 2 5 5 2 5 10 3 1 4 7 4 5 6 8
16 18 19 19 19 19 22 10 7 4 7 5 6 6 4 6 9 12 7 6 4 4 4 2 5 12 8 4 3 5 5 6 3 4 5 8 6 11 6 5 5 7 7 8 10
15 17 18 19 17 14 11 5 6 9 10 10 10 9 12 4 6 9 9 3 4 6 5 3 7 5 7 3 6 5 2 4 2 2 3 4 7 8 7 6 8 11 9 9 6
14 16 17 18 13 8 7 7 14 9 4 7 3 2 1 7 3 4 11 1 2 6 6 5 2 9 8 5 5 3 4 2 3 3 3 2 6 8 5 5 6 8 10 8 13
13 14 17 16 4 12 5 21 12 7 3 6 5 1 2 4 3 1 12 0 5 9 6 3 3 11 9 8 9 10 7 4 5 2 3 1 5 6 5 8 6 8 8 13 12
13 13 14 11 8 5 14 19 12 2 5 10 5 7 0 1 2 8 2 1 6 5 6 4 7 10 5 5 7 5 7 6 3 3 2 1 1 6 1 6 8 9 11 13 12
12 12 11 7 8 10 20 17 4 6 4 7 6 7 7 1 1 3 8 9 4 4 4 3 1 6 8 4 5 9 9 7 4 2 2 4 5 4 5 5 3 5 3 5 5
13 8 5 6 7 17 17 5 5 6 5 9 7 10 10 3 3 6 4 2 2 4 4 2 2 2 4 9 4 2 7 2 2 1 6 4 3 6 7 4 5 5 5 3 5
6 2 3 7 10 13 7 6 8 3 5 4 5 10 6 7 3 3 5 3 2 3 3 4 3 5 3 4 9 5 4 5 7 4 3 1 7 5 6 5 7 7 7 6 6
5 4 3 10 9 8 5 5 6 6 4 6 9 5 6 4 5 5 3 3 5 11 1 3 1 2 2 2 6 4 4 4 6 3 3 4 7 7 6 11 3 5 6 6 4
4 3 5 10 8 5 5 1 2 3 6 3 2 2 3 5 3 4 2 1 3 6 6 1 2 2 2 6 5 2 7 3 2 4 4 4 4 5 3 5 6 2 2 4 4
3 3 6 9 6 5 3 5 4 5 3 2 2 6 5 3 2 3 3 5 8 3 7 2 1 4 3 5 9 2 2 2 2 4 4 1 5 7 8 3 7 7 4 4 5
3 2 8 9 3 1 1 4 3 3 2 3 2 4 3 2 2 2 6 6 12 7 4 2 1 3 6 3 2 5 9 14 4 5 2 1 6 2 5 5 5 7 5 0 3
2 1 2 3 2 2 4 4 2 2 1 3 2 2 3 5 4 2 2 1 7 9 2 3 3 1 5 4 3 8 9 15 14 2 6 4 6 1 1 6 6 1 2 2 3
3 2 2 2 3 5 0 3 4 3 3 3 4 3 3 3 3 4 3 0 4 3 7 8 3 5 7 2 3 5 14 12 17 7 12 12 4 2 4 4 4 2 1 3 5
2 3 3 1 2 2 1 2 2 3 2 2 2 1 1 3 5 3 3 6 2 2 3 4 2 1 8 8 4 2 11 15 19 21 11 23 8 9 6 3 4 1 3 2 5
4 3 1 3 2 3 3 4 4 3 3 4 2 1 1 2 3 8 6 2 3 3 2 1 2 2 5 6 10 8 7 16 14 15 14 9 11 5 4 5 6 7 4 2 4
3 2 4 3 3 3 4 6 5 4 3 5 4 1 3 6 3 8 7 7 8 2 2 2 1 2 2 2 7 3 8 7 10 11 13 10 22 3 7 7 5 8 6 5 4
Wind_Direction
344 343 342 337 329 321 316 310 306 300 303 306 301 293 310 287 261 247 233 231 248 251 266 262 284 189 252 243 133 133 86 184 214 171 244 142 189 157 113 120 211 165 138 303 151
351 350 347 340 335 332 324 315 306 305 301 297 300 294 292 295 252 244 242 246 242 239 235 205 177 153 176 226 167 147 170 207 196 199 241 207 194 169 148 134 199 154 53 132 147
344 348 348 349 341 335 329 320 311 306 302 303 293 293 274 304 232 257 254 241 233 232 229 202 176 173 179 176 183 159 202 215 224 208 229 295 222 174 138 211 201 195 157 156 158
332 337 340 343 344 339 336 329 317 308 299 304 298 286 279 305 195 314 266 233 218 218 210 182 149 162 180 179 177 178 229 200 207 172 147 201 175 219 212 204 46 184 155 162 172
319 324 329 331 336 339 336 333 323 310 294 307 306 296 316 290 234 306 312 229 180 190 189 173 163 142 185 174 131 201 178 195 205 148 158 129 231 235 256 269 29 132 155 174 181
317 315 317 321 327 330 331 330 326 317 302 308 310 303 224 269 322 292 258 176 181 190 190 160 189 171 161 198 187 191 192 198 173 166 165 170 208 156 313 216 122 159 178 181 185
327 318 314 318 320 321 324 326 322 316 303 306 304 324 184 252 283 290 242 194 208 188 181 180 169 148 127 145 197 142 150 295 188 153 196 141 264 225 218 153 211 195 188 186 192
332 328 324 318 320 318 321 321 316 311 301 297 303 338 314 253 254 261 262 251 204 212 209 167 160 113 127 246 59 126 118 187 229 144 199 137 239 254 203 165 222 213 210 193 196
336 329 328 330 323 322 322 318 317 308 296 292 294 162 242 283 233 213 268 228 183 178 146 153 130 145 105 145 105 229 196 184 221 216 141 159 243 243 339 200 225 213 210 213 207
336 333 332 334 329 328 327 324 335 342 4 297 64 153 158 326 332 178 216 229 193 135 87 82 101 120 87 162 201 169 126 135 177 207 160 147 242 257 161 209 247 266 229 215 221
331 333 335 336 334 335 351 351 12 343 29 285 299 307 288 344 326 160 222 293 140 104 156 138 131 191 169 176 116 151 155 146 215 203 138 203 227 235 229 230 246 259 247 238 235
333 333 335 335 332 336 357 22 338 295 307 269 259 265 285 35 323 157 198 237 156 148 126 118 212 170 154 142 93 67 159 173 94 112 154 140 253 249 244 237 215 227 237 240 237
334 335 336 334 332 345 350 357 336 325 300 307 247 252 176 188 213 297 183 90 149 143 188 161 214 153 160 151 153 113 128 209 124 124 54 66 298 274 242 239 208 233 229 229 231
345 343 339 342 338 339 335 336 336 319 350 292 357 35 124 208 200 290 191 21 190 180 147 189 132 160 161 186 168 204 154 97 59 127 211 173 265 262 258 254 246 242 227 237 231
339 343 339 354 324 347 321 335 337 345 40 314 352 320 191 314 8 23 10 177 213 143 138 194 147 151 154 195 149 199 159 167 91 70 6 325 313 262 225 256 253 247 234 235 237
332 336 334 335 326 328 327 327 333 38 302 336 353 348 353 211 76 75 26 358 315 92 48 61 326 161 175 134 139 140 91 62 68 82 313 213 184 243 203 213 228 254 262 233 242
321 326 335 339 323 328 333 8 33 92 325 337 334 331 327 266 194 160 136 324 295 143 146 112 313 295 139 104 53 86 130 95 57 51 233 314 188 268 260 242 229 274 259 310 314
344 354 30 12 338 333 352 44 65 241 261 308 296 315 324 344 355 223 134 216 178 313 121 157 171 195 197 162 171 177 158 151 178 191 206 35 233 236 236 285 264 262 271 272 272
22 41 28 347 349 347 62 48 194 207 291 318 326 42 343 12 325 350 222 232 186 167 295 140 114 308 58 126 135 185 218 125 100 32 66 223 294 283 274 278 263 262 245 247 213
15 30 12 356 354 26 69 251 199 233 330 337 340 353 333 316 31 36 245 290 219 169 130 286 115 16 131 86 348 138 145 95 28 134 242 269 281 246 297 245 323 309 286 258 171
12 41 356 357 355 46 123 223 283 251 326 337 305 305 277 292 302 303 332 354 5 313 179 127 16 310 118 222 165 144 201 145 110 162 197 218 255 221 232 256 287 284 318 277 171
88 29 352 1 44 59 100 191 290 293 314 328 289 261 278 339 305 310 22 347 344 300 176 157 144 165 197 337 340 213 192 197 200 214 238 175 265 222 222 294 269 274 293 219 119
85 272 8 13 100 320 309 297 247 280 320 342 310 350 306 309 330 337 289 139 28 355 343 172 194 62 353 348 326 208 203 196 190 105 208 154 249 164 6 4 343 334 128 90 90
89 22 336 45 138 130 85 294 312 275 263 255 278 272 309 326 357 306 314 48 243 114 349 341 193 183 221 220 147 207 206 203 189 198 221 232 234 50 68 52 12 334 250 119 122
50 241 188 220 254 223 162 168 317 325 301 269 332 40 29 316 318 314 344 329 345 115 51 18 299 239 267 257 246 213 218 207 199 214 201 239 210 234 203 163 156 337 301 125 128
138 133 175 137 167 177 217 241 224 272 188 286 168 351 325 247 289 310 317 287 284 2 64 152 298 331 340 345 231 245 236 212 228 240 243 235 273 210 279 188 190 191 226 193 185
136 128 120 221 190 179 224 217 218 174 260 228 192 120 271 271 253 257 257 251 264 301 265 233 308 332 252 40 346 283 222 221 218 209 229 236 244 145 225 244 215 194 232 225 240